Regional Weather Roundup
Issued by NWS Kansas City/Pleasant Hill, MO

Home | Current Version | Previous Version | Graphics & Text | Print | Product List | Glossary Off
Versions: 1 2 3 4 5 6 7 8 9 10 11 12 13 14 15 16 17 18 19 20 21 22 23 24 25 26 27

000
ASUS43 KEAX 290310
RWREAX

WEATHER ROUNDUP FOR EASTERN KANSAS AND NORTHWEST MISSOURI
NATIONAL WEATHER SERVICE KANSAS CITY/PLEASANT HILL MO
1000 PM CDT THU APR 28 2016

KSZ040-057-103>105-MOZ028-029-037-043-290400-
...KANSAS CITY METROPOLITAN AREA...

CITY           SKY/WX    TMP DP  RH WIND       PRES   REMARKS
K.C. INTL      CLOUDY    51  46  83 N6        30.06R
K.C. DOWNTOWN  CLEAR     53  46  77 N6        30.05R
LEES SUMMIT    PTCLDY    50  44  80 N7        30.05R
OLATHE - IXD   PTCLDY    50  46  86 N7        30.05R
OLATHE - OJC   PTCLDY    51  45  79 N6        30.04R
LAWRENCE       CLEAR     50  45  83 N6        30.05R

$$

MOZ001>008-011>017-020>025-030>033-038>040-044>046-053-054-290400-
...NORTHERN AND CENTRAL MISSOURI...

CITY           SKY/WX    TMP DP  RH WIND       PRES   REMARKS
ST. JOSEPH     CLOUDY    52  44  74 N9        30.07R
MOSBY          CLOUDY    54  46  76 N3        30.06R
WARRENSBURG    CLEAR     50  45  81 CALM      30.04R
WHITEMAN AFB   NOT AVBL
CLINTON        PTCLDY    55  50  82 NE8       30.04R
SEDALIA        CLEAR     53  48  83 N3        30.05R
WARSAW         NOT AVBL
CHILLICOTHE      N/A     54  46  74 VRB3      30.06R
KIRKSVILLE     CLOUDY    54  45  71 W6        30.04R

$$

MOZ041-047>049-056>058-063>065-088>090-097-290400-
...EASTERN AND SOUTHERN MISSOURI...

CITY           SKY/WX    TMP DP  RH WIND       PRES   REMARKS
ST. LOUIS INTL CLEAR     61  49  64 CALM      30.01R
SPIRIT OF STL  CLEAR     59  50  72 CALM      30.01R
COLUMBIA       CLEAR     53  49  86 N6        30.03R
JEFFERSON CITY CLEAR     56  49  77 CALM      30.03R
ROLLA          CLEAR     56  50  80 N6        30.00R
OSAGE BEACH    CLEAR     55  45  67 N5        30.03R
SPRINGFIELD    PTCLDY    61  47  59 NE7       29.99R
JOPLIN         CLOUDY    59  51  75 E3        29.98R
WEST PLAINS    CLEAR     57  46  66 CALM      30.02R

$$

IAZ060-094-KSZ022-034>040-054-083-096-NEZ052-066-093-290400-
...KANSAS...SOUTHEAST NEBRASKA AND IOWA...

CITY           SKY/WX    TMP DP  RH WIND       PRES   REMARKS
TOPEKA         PTCLDY    50  45  83 NE5       30.05R
MANHATTAN      PTCLDY    51  44  77 N5        30.06R
EMPORIA        CLOUDY    55  47  74 N8        30.03R
CHANUTE        CLOUDY    61  50  67 NE7       29.99R
WICHITA        CLOUDY    61  48  62 NE12      30.00R
OMAHA          CLOUDY    46  41  82 N8        30.09R
LINCOLN        CLOUDY    48  41  76 NE6       30.11R
FALLS CITY     CLOUDY    51  44  77 N6        30.07R
LAMONI         CLOUDY    49  43  80 NW12      30.06R
DES MOINES     DRIZZLE   50  45  83 NW8       30.04R

$$





USA.gov is the U.S. government's official web portal to all federal, state and local government web resources and services.